Location: McFarlands Corners
(41.4117°N, 81.3382°W)
Time: 13:04:54
(UTC+00:00)

Tiros 1 despin weight - Pass Details

Date: 20 February 2026
Orbit: 555 x 593 km, 48.2° (Epoch: 17 March)

Event Time Altitude Azimuth Distance (km) Brightness Sun altitude
Rises 01:18:13 0° 297° (WNW) 2,733 ? -25.7°
Reaches altitude 10° 01:20:28 10° 295° (WNW) 1,837 ? -26.2°
Enters shadow 01:23:42 50° 275° (W) 713 ? -26.8°
Maximum altitude 01:24:38 70° 213° (SSW) 595 - -26.9°
Drops below altitude 10° 01:28:49 10° 129° (SE) 1,840 - -27.7°
Sets 01:31:05 0° 127° (SE) 2,738 - -28.1°
